Weather History for Flamingo Airport, Bonaire, Bonaire

Change the Weather History Date:

Friday, October 4, 2013

  Actual Average Record
Temperature  
Mean Temperature 84 °F -  
Max Temperature 87 °F 88 °F - ()
Min Temperature 82 °F 81 °F - ()
Cooling Degree Days 20    
Growing Degree Days 34 (Base 50)    
Moisture  
Dew Point 79 °F    
Average Humidity 82    
Maximum Humidity 89    
Minimum Humidity 75    
Precipitation  
Precipitation 0.00 in - - ()
Sea Level Pressure  
Sea Level Pressure 29.85 in    
Wind  
Wind Speed 12 mph ()    
Max Wind Speed 21 mph    
Max Gust Speed -    
Visibility 6.2 miles    
Events      
T = Trace of Precipitation, MM = Missing Value Source: Averaged Metar Reports

Daily Weather History Graph

Daily Weather History Graph

Search for Another Location

Airport:

Trip Planner

Search our weather history database for the weather conditions in past years. The results will help you decide how hot, cold, wet, or windy it might be!

Date:

Astronomy

Oct. 04, 2013 Rise Set
Actual Time 6:22 AM AST 6:21 PM AST
Civil Twilight 6:01 AM AST 6:42 PM AST
Nautical Twilight 5:36 AM AST 7:06 PM AST
Astronomical Twilight 5:11 AM AST 7:31 PM AST
Moon 5:53 AM AST (10/4) 6:07 PM AST (10/4)
Length of Visible Light 12h 41m
Length of Day
11h 58m
Waning Crescent, 0% of the Moon is Illuminated
Oct 4
Waning Crescent
Oct 4
New
Oct 11
First Quarter
Oct 18
Full
Oct 26
Last Quarter

Hourly Weather History & Observations

Time (AST) Temp. Heat Index Dew Point Humidity Pressure Visibility Wind Dir Wind Speed Gust Speed Precip Events Conditions
1:00 AM 82.4 °F 92.4 °F 78.8 °F 89% 29.86 in - East 16.1 mph - N/A   Unknown
2:00 AM 82.4 °F 92.4 °F 78.8 °F 89% 29.86 in - East 12.7 mph - N/A   Unknown
3:00 AM 82.4 °F 92.4 °F 78.8 °F 89% 29.83 in - East 11.5 mph - N/A   Unknown
4:00 AM 82.4 °F 90.9 °F 77.0 °F 84% 29.83 in - East 11.5 mph - N/A   Unknown
5:00 AM 82.4 °F 92.4 °F 78.8 °F 89% 29.83 in - East 11.5 mph - N/A   Unknown
6:00 AM 82.4 °F 92.4 °F 78.8 °F 89% 29.83 in - East 10.4 mph - N/A   Unknown
6:55 AM 82.4 °F 90.9 °F 77.0 °F 84% 29.86 in 6.2 mi East 16.1 mph - N/A   Scattered Clouds
7:55 AM 86.0 °F 99.3 °F 78.8 °F 79% 29.89 in - East 16.1 mph - N/A   Unknown
9:00 AM 86.0 °F 99.3 °F 78.8 °F 79% 29.89 in 6.2 mi East 20.7 mph - N/A   Scattered Clouds
9:55 AM 86.0 °F 99.3 °F 78.8 °F 79% 29.92 in - East 20.7 mph - N/A   Unknown
11:00 AM 87.8 °F 102.5 °F 78.8 °F 75% 29.92 in 6.2 mi East 18.4 mph - N/A   Scattered Clouds
11:55 AM 87.8 °F 102.5 °F 78.8 °F 75% 29.89 in - East 16.1 mph - N/A   Unknown
1:00 PM 87.8 °F 102.5 °F 78.8 °F 75% 29.86 in 6.2 mi East 12.7 mph - N/A   Mostly Cloudy
1:55 PM 86.0 °F 99.3 °F 78.8 °F 79% 29.86 in - East 12.7 mph - N/A   Unknown
3:00 PM 86.0 °F 99.3 °F 78.8 °F 79% 29.83 in 6.2 mi ESE 11.5 mph - N/A   Mostly Cloudy
3:55 PM 86.0 °F 99.3 °F 78.8 °F 79% 29.83 in - ESE 11.5 mph - N/A   Unknown
4:55 PM 84.2 °F 96.1 °F 78.8 °F 84% 29.80 in - ESE 8.1 mph - N/A   Unknown
5:00 PM 84.2 °F 96.1 °F 78.8 °F 84% 29.80 in 6.2 mi ESE 8.1 mph - N/A   Scattered Clouds
5:55 PM 84.2 °F 94.1 °F 77.0 °F 79% 29.80 in 6.2 mi East 9.2 mph - N/A   Partly Cloudy
6:55 PM 84.2 °F 96.1 °F 78.8 °F 84% 29.83 in - East 6.9 mph - N/A   Unknown